Total_Precipitation_Accumulation
0.01 0.01 0.01 0.02 0.02 0.06 0.16 0.36 0.57 0.42 0.14 0.05 0.03 0.04 0.08 0.18 0.33 0.57 0.97 1.47 1.67 1.49 1.32 0.96 0.84 0.83 0.53 0.29 0.13 0.07 0.03 0.02 0.00 0.00 0.00 0.00 0.00 0.00
0.01 0.00 0.01 0.01 0.00 0.03 0.07 0.12 0.23 0.47 0.42 0.13 0.08 0.08 0.09 0.08 0.07 0.14 0.31 0.52 0.73 0.96 0.89 0.93 0.81 0.76 0.82 0.80 0.50 0.23 0.08 0.04 0.02 0.01 0.00 0.00 0.00 0.00
0.00 0.01 0.01 0.00 0.01 0.01 0.03 0.09 0.13 0.21 0.23 0.15 0.19 0.22 0.22 0.28 0.30 0.31 0.31 0.33 0.33 0.45 0.57 0.54 0.64 0.59 0.53 0.51 0.58 0.53 0.29 0.09 0.05 0.03 0.01 0.00 0.00 0.00
0.01 0.01 0.01 0.01 0.01 0.02 0.03 0.04 0.08 0.12 0.21 0.15 0.06 0.13 0.24 0.29 0.26 0.32 0.41 0.49 0.46 0.46 0.54 0.63 0.67 0.69 0.67 0.49 0.45 0.42 0.40 0.30 0.11 0.05 0.02 0.01 0.01 0.00
0.01 0.02 0.02 0.02 0.02 0.01 0.04 0.07 0.08 0.09 0.10 0.16 0.10 0.13 0.16 0.22 0.25 0.22 0.28 0.32 0.50 0.54 0.45 0.43 0.60 0.79 0.91 0.94 0.76 0.58 0.42 0.32 0.17 0.11 0.08 0.05 0.06 0.03
0.01 0.02 0.03 0.06 0.08 0.05 0.03 0.05 0.07 0.08 0.10 0.10 0.11 0.11 0.11 0.08 0.13 0.16 0.22 0.33 0.28 0.37 0.56 0.49 0.43 0.41 0.38 0.41 0.48 0.61 0.71 0.58 0.47 0.33 0.19 0.15 0.11 0.11
0.01 0.02 0.04 0.06 0.06 0.07 0.07 0.06 0.04 0.04 0.05 0.07 0.08 0.06 0.07 0.13 0.18 0.14 0.11 0.17 0.40 0.57 0.51 0.59 0.49 0.29 0.28 0.33 0.32 0.30 0.34 0.51 0.54 0.52 0.50 0.32 0.24 0.18
0.01 0.01 0.01 0.02 0.04 0.06 0.06 0.07 0.08 0.08 0.05 0.04 0.05 0.05 0.04 0.11 0.10 0.16 0.25 0.23 0.17 0.34 0.57 0.53 0.50 0.49 0.30 0.24 0.31 0.25 0.19 0.23 0.34 0.41 0.33 0.39 0.33 0.21
0.01 0.01 0.01 0.03 0.04 0.04 0.06 0.06 0.05 0.05 0.08 0.08 0.07 0.09 0.08 0.12 0.13 0.19 0.24 0.22 0.26 0.31 0.36 0.33 0.41 0.48 0.41 0.38 0.34 0.32 0.32 0.30 0.28 0.29 0.31 0.28 0.25 0.28
0.00 0.00 0.00 0.01 0.01 0.04 0.09 0.08 0.07 0.07 0.10 0.09 0.11 0.12 0.14 0.09 0.09 0.13 0.21 0.28 0.23 0.33 0.42 0.48 0.48 0.33 0.37 0.49 0.45 0.39 0.35 0.43 0.41 0.31 0.26 0.27 0.27 0.22
0.00 0.00 0.00 0.00 0.00 0.00 0.02 0.07 0.09 0.07 0.09 0.12 0.15 0.12 0.09 0.10 0.09 0.11 0.19 0.19 0.32 0.41 0.41 0.49 0.53 0.49 0.41 0.47 0.51 0.46 0.47 0.44 0.34 0.34 0.31 0.24 0.19 0.18
0.00 0.00 0.00 0.00 0.00 0.00 0.00 0.01 0.02 0.02 0.03 0.06 0.07 0.06 0.04 0.03 0.05 0.12 0.24 0.36 0.43 0.48 0.48 0.42 0.41 0.42 0.42 0.55 0.62 0.60 0.58 0.54 0.43 0.39 0.35 0.29 0.24 0.16
0.00 0.00 0.00 0.00 0.00 0.00 0.00 0.00 0.01 0.01 0.01 0.01 0.01 0.01 0.01 0.01 0.02 0.03 0.06 0.15 0.26 0.42 0.47 0.50 0.47 0.45 0.54 0.55 0.61 0.70 0.70 0.77 0.59 0.48 0.46 0.44 0.38 0.28
0.00 0.00 0.00 0.00 0.00 0.00 0.00 0.00 0.00 0.00 0.00 0.00 0.00 0.00 0.01 0.01 0.01 0.01 0.03 0.05 0.11 0.20 0.30 0.35 0.43 0.51 0.50 0.46 0.47 0.67 0.83 0.84 0.78 0.72 0.58 0.55 0.52 0.48
0.00 0.00 0.00 0.00 0.00 0.00 0.00 0.00 0.00 0.00 0.00 0.00 0.00 0.00 0.00 0.00 0.00 0.00 0.01 0.01 0.01 0.02 0.04 0.11 0.17 0.22 0.33 0.40 0.39 0.39 0.60 0.78 0.88 0.80 0.74 0.70 0.59 0.50
0.00 0.00 0.00 0.00 0.00 0.00 0.00 0.00 0.00 0.00 0.00 0.00 0.00 0.00 0.00 0.00 0.00 0.00 0.00 0.00 0.01 0.01 0.00 0.00 0.00 0.02 0.04 0.10 0.17 0.17 0.28 0.42 0.48 0.67 0.70 0.67 0.72 0.71
0.00 0.00 0.00 0.00 0.00 0.00 0.00 0.00 0.00 0.00 0.00 0.00 0.00 0.00 0.00 0.00 0.00 0.00 0.00 0.00 0.00 0.00 0.00 0.00 0.00 0.00 0.00 0.01 0.04 0.08 0.08 0.12 0.17 0.19 0.28 0.32 0.37 0.56
0.00 0.00 0.00 0.00 0.00 0.00 0.00 0.00 0.00 0.00 0.00 0.00 0.00 0.00 0.00 0.00 0.00 0.00 0.00 0.00 0.01 0.00 0.00 0.00 0.00 0.00 0.00 0.00 0.00 0.01 0.03 0.03 0.03 0.05 0.09 0.12 0.08 0.10
0.00 0.00 0.00 0.00 0.00 0.00 0.00 0.00 0.00 0.00 0.00 0.00 0.00 0.00 0.00 0.00 0.01 0.01 0.01 0.00 0.01 0.00 0.00 0.00 0.01 0.01 0.02 0.01 0.00 0.00 0.00 0.00 0.01 0.01 0.01 0.03 0.03 0.01
0.00 0.00 0.00 0.00 0.00 0.00 0.00 0.00 0.00 0.00 0.00 0.00 0.00 0.00 0.00 0.00 0.01 0.01 0.01 0.01 0.01 0.00 0.00 0.00 0.01 0.01 0.04 0.06 0.04 0.00 0.00 0.01 0.01 0.02 0.01 0.00 0.00 0.00
0.00 0.00 0.00 0.00 0.00 0.00 0.00 0.00 0.00 0.00 0.00 0.00 0.00 0.00 0.00 0.00 0.01 0.01 0.01 0.01 0.01 0.01 0.01 0.01 0.00 0.00 0.01 0.01 0.02 0.00 0.00 0.00 0.00 0.01 0.01 0.03 0.01 0.00
0.00 0.00 0.00 0.00 0.00 0.00 0.00 0.00 0.00 0.00 0.00 0.00 0.00 0.00 0.00 0.00 0.00 0.01 0.01 0.01 0.01 0.01 0.01 0.01 0.00 0.00 0.01 0.01 0.02 0.01 0.00 0.00 0.00 0.00 0.00 0.04 0.05 0.06
0.00 0.00 0.00 0.00 0.00 0.00 0.00 0.00 0.00 0.00 0.00 0.00 0.00 0.00 0.00 0.00 0.00 0.01 0.00 0.01 0.01 0.01 0.00 0.01 0.00 0.00 0.01 0.01 0.01 0.01 0.01 0.01 0.01 0.01 0.01 0.00 0.00 0.01